Weather History for Jackson, MS

Change the Weather History Date:

Thursday, January 16, 2014

  Actual Average Record
Temperature  
Mean Temperature 44 °F 46 °F  
Max Temperature 62 °F 56 °F 80 °F (1932)
Min Temperature 25 °F 35 °F 15 °F (1972)
Degree Days  
Heating Degree Days 21 20  
Month to date heating degree days 361 320  
Since 1 July heating degree days 1383 1270  
Cooling Degree Days 0 0  
Month to date cooling degree days 0 0  
Year to date cooling degree days 0 0  
Moisture  
Dew Point 25 °F    
Average Humidity 49    
Maximum Humidity 75    
Minimum Humidity 23    
Precipitation  
Precipitation 0.00 in 0.16 in 1.82 in (1947)
Month to date precipitation 1.54 2.40  
Year to date precipitation 1.54 2.40  
Sea Level Pressure  
Sea Level Pressure 30.08 in    
Wind  
Wind Speed 8 mph (SSW)    
Max Wind Speed 21 mph    
Max Gust Speed 29 mph    
Visibility 10 miles    
Events      
T = Trace of Precipitation, MM = Missing Value Source: NWS Daily Summary

Daily Weather History Graph

Daily Weather History Graph

Search for Another Location

Airport:

Trip Planner

Search our weather history database for the weather conditions in past years. The results will help you decide how hot, cold, wet, or windy it might be!

Date:

Astronomy

Jan. 16, 2014 Rise Set
Actual Time 7:01 AM CST 5:18 PM CST
Civil Twilight 6:35 AM CST 5:45 PM CST
Nautical Twilight 6:05 AM CST 6:15 PM CST
Astronomical Twilight 5:35 AM CST 6:44 PM CST
Moon 6:04 PM CST (1/16) 7:00 AM CST (1/16)
Length of Visible Light 11h 10m
Length of Day
10h 17m
Full, 100% of the Moon is Illuminated
Jan 16
Full
Jan 23
Last Quarter
Jan 30
New
Feb 6
First Quarter
Feb 14
Full

Hourly Weather History & Observations

Time (CST) Temp. Windchill Dew Point Humidity Pressure Visibility Wind Dir Wind Speed Gust Speed Precip Events Conditions
12:54 AM 27.0 °F 23.0 °F 19.0 °F 72% 30.17 in 10.0 mi SE 3.5 mph - N/A   Clear
1:54 AM 27.0 °F - 18.0 °F 69% 30.16 in 10.0 mi Calm Calm - N/A   Clear
2:54 AM 27.0 °F - 19.0 °F 72% 30.16 in 10.0 mi Calm Calm - N/A   Clear
3:54 AM 27.0 °F - 19.0 °F 72% 30.16 in 10.0 mi Calm Calm - N/A   Clear
4:54 AM 26.1 °F 21.9 °F 19.0 °F 75% 30.17 in 10.0 mi SSE 3.5 mph - N/A   Clear
5:54 AM 28.9 °F 22.8 °F 19.9 °F 69% 30.16 in 10.0 mi South 5.8 mph - N/A   Mostly Cloudy
6:54 AM 30.0 °F 22.4 °F 21.0 °F 69% 30.15 in 10.0 mi South 8.1 mph - N/A   Mostly Cloudy
7:54 AM 32.0 °F 25.6 °F 19.9 °F 61% 30.16 in 10.0 mi South 6.9 mph - N/A   Mostly Cloudy
8:54 AM 35.1 °F 28.6 °F 21.0 °F 57% 30.17 in 10.0 mi South 8.1 mph - N/A   Mostly Cloudy
9:54 AM 43.0 °F 36.4 °F 19.0 °F 38% 30.17 in 10.0 mi South 12.7 mph - N/A   Partly Cloudy
10:54 AM 48.9 °F - 21.9 °F 35% 30.12 in 10.0 mi South 11.5 mph - N/A   Partly Cloudy
11:54 AM 52.0 °F - 23.0 °F 32% 30.07 in 10.0 mi SSW 13.8 mph 21.9 mph N/A   Clear
12:54 PM 57.0 °F - 24.1 °F 28% 30.02 in 10.0 mi SSW 15.0 mph 23.0 mph N/A   Clear
1:54 PM 60.1 °F - 24.1 °F 25% 30.00 in 10.0 mi SW 16.1 mph 25.3 mph N/A   Clear
2:54 PM 62.1 °F - 25.0 °F 24% 29.98 in 10.0 mi WSW 13.8 mph 21.9 mph N/A   Clear
3:54 PM 62.1 °F - 25.0 °F 24% 29.98 in 10.0 mi WSW 12.7 mph 21.9 mph N/A   Clear
4:54 PM 59.0 °F - 27.0 °F 29% 29.99 in 10.0 mi WSW 9.2 mph 17.3 mph N/A   Clear
5:54 PM 55.9 °F - 28.9 °F 36% 30.00 in 10.0 mi SW 10.4 mph - N/A   Clear
6:54 PM 50.0 °F - 30.0 °F 46% 30.00 in 10.0 mi SSW 8.1 mph - N/A   Clear
7:54 PM 53.1 °F - 33.1 °F 47% 30.01 in 10.0 mi SSW 10.4 mph - N/A   Clear
8:54 PM 51.1 °F - 33.1 °F 50% 30.02 in 10.0 mi SW 6.9 mph - N/A   Clear
9:54 PM 48.0 °F - 34.0 °F 58% 30.03 in 10.0 mi SW 4.6 mph - N/A   Clear
10:54 PM 45.0 °F 41.8 °F 34.0 °F 65% 30.02 in 10.0 mi SSW 5.8 mph - N/A   Clear
11:54 PM 48.0 °F - 35.1 °F 61% 30.03 in 10.0 mi SW 5.8 mph - N/A   Clear